Previsão horária em Sennoe

Hoje, 23 Novembro, Segunda-feira

Tempo Temperatura Precipitação Vento Pressão Humidade
00:00 +2°C° 0 mm 6 m/s 743 mmHg 90%
01:00 +1°C° 0 mm 6 m/s 744 mmHg 90%
02:00 +1°C° 0 mm 5 m/s 744 mmHg 91%
03:00 +1°C° 0 mm 5 m/s 744 mmHg 91%
04:00 +1°C° 0 mm 5 m/s 744 mmHg 91%
05:00 0°C° 0 mm 5 m/s 744 mmHg 91%
06:00 +1°C° 0 mm 5 m/s 744 mmHg 91%
07:00 +1°C° 0 mm 5 m/s 745 mmHg 91%
08:00 +1°C° 0 mm 5 m/s 745 mmHg 90%
09:00 +2°C° 0 mm 6 m/s 745 mmHg 88%
10:00 +2°C° 0 mm 6 m/s 744 mmHg 86%
11:00 +2°C° 0 mm 6 m/s 744 mmHg 84%
12:00 +2°C° 0 mm 6 m/s 744 mmHg 84%
13:00 +2°C° 0 mm 6 m/s 744 mmHg 84%
14:00 +2°C° 0 mm 6 m/s 744 mmHg 84%
15:00 +2°C° 0 mm 6 m/s 744 mmHg 85%
16:00 +2°C° 0 mm 6 m/s 744 mmHg 86%
17:00 +2°C° 0 mm 5 m/s 744 mmHg 86%
18:00 +2°C° 0.1 mm 5 m/s 744 mmHg 86%
19:00 +2°C° 0.1 mm 5 m/s 744 mmHg 87%
20:00 +2°C° 0.1 mm 5 m/s 744 mmHg 87%
21:00 +2°C° 0.1 mm 5 m/s 744 mmHg 88%
22:00 +2°C° 0.1 mm 6 m/s 744 mmHg 88%
23:00 +2°C° 0.1 mm 6 m/s 743 mmHg 89%

Amanhã, 24 Novembro, Terça-feira

Tempo Temperatura Precipitação Vento Pressão Humidade
00:00 +2°C° 0.1 mm 6 m/s 744 mmHg 88%
01:00 +2°C° 0.1 mm 6 m/s 744 mmHg 87%
02:00 +2°C° 0.1 mm 5 m/s 744 mmHg 86%
03:00 +2°C° 0.1 mm 6 m/s 744 mmHg 86%
04:00 +2°C° 0.1 mm 6 m/s 745 mmHg 87%
05:00 +2°C° 0.1 mm 6 m/s 745 mmHg 88%
06:00 +1°C° 0 mm 6 m/s 745 mmHg 88%
07:00 +1°C° 0 mm 6 m/s 745 mmHg 88%
08:00 +1°C° 0 mm 6 m/s 746 mmHg 88%
09:00 +1°C° 0 mm 6 m/s 746 mmHg 85%
10:00 +2°C° 0 mm 6 m/s 746 mmHg 81%
11:00 +3°C° 0 mm 6 m/s 747 mmHg 78%
12:00 +3°C° 0 mm 6 m/s 747 mmHg 77%
13:00 +3°C° 0 mm 6 m/s 747 mmHg 76%
14:00 +3°C° 0 mm 5 m/s 747 mmHg 74%
15:00 +3°C° 0.2 mm 5 m/s 747 mmHg 80%
16:00 +4°C° 0.2 mm 4 m/s 747 mmHg 85%
17:00 +3°C° 0.2 mm 4 m/s 747 mmHg 90%
18:00 +4°C° 0.8 mm 4 m/s 747 mmHg 90%
19:00 +4°C° 0.8 mm 4 m/s 747 mmHg 90%
20:00 +3°C° 0.8 mm 5 m/s 747 mmHg 90%
21:00 +3°C° 0.4 mm 5 m/s 747 mmHg 89%
22:00 +3°C° 0.4 mm 5 m/s 747 mmHg 88%
23:00 +3°C° 0.4 mm 5 m/s 747 mmHg 87%

Depois de amanhã, 25 Novembro, Quarta-feira

Tempo Temperatura Precipitação Vento Pressão Humidade
00:00 +2°C° 0 mm 5 m/s 747 mmHg 86%
01:00 +2°C° 0 mm 5 m/s 747 mmHg 85%
02:00 +2°C° 0 mm 5 m/s 748 mmHg 84%
03:00 +2°C° 0.2 mm 5 m/s 747 mmHg 85%
04:00 +3°C° 0.2 mm 4 m/s 747 mmHg 86%
05:00 +1°C° 0.2 mm 4 m/s 747 mmHg 88%
06:00 +1°C° 0.3 mm 4 m/s 747 mmHg 88%
07:00 +3°C° 0.3 mm 4 m/s 747 mmHg 88%
08:00 +3°C° 0.3 mm 4 m/s 747 mmHg 89%
09:00 +3°C° 0.4 mm 4 m/s 747 mmHg 89%
10:00 +3°C° 0.4 mm 4 m/s 747 mmHg 90%
11:00 +3°C° 0.4 mm 4 m/s 747 mmHg 91%
12:00 +3°C° 0.3 mm 4 m/s 747 mmHg 91%
13:00 +3°C° 0.3 mm 4 m/s 747 mmHg 91%
14:00 +4°C° 0.3 mm 4 m/s 748 mmHg 91%
15:00 +4°C° 0.1 mm 4 m/s 748 mmHg 92%
16:00 +4°C° 0.1 mm 4 m/s 748 mmHg 92%
17:00 +4°C° 0.1 mm 3 m/s 748 mmHg 93%
18:00 +4°C° 0 mm 3 m/s 748 mmHg 93%
19:00 +3°C° 0 mm 3 m/s 748 mmHg 93%
20:00 +3°C° 0 mm 3 m/s 748 mmHg 93%
21:00 +3°C° 0 mm 3 m/s 748 mmHg 93%
22:00 +4°C° 0 mm 2 m/s 748 mmHg 92%
23:00 +4°C° 0 mm 2 m/s 748 mmHg 92%

26 Novembro, Quinta-feira

Tempo Temperatura Precipitação Vento Pressão Humidade
00:00 +4°C° 0 mm 2 m/s 748 mmHg 91%
01:00 +3°C° 0 mm 2 m/s 749 mmHg 90%
02:00 +3°C° 0 mm 2 m/s 749 mmHg 89%
03:00 +3°C° 0 mm 2 m/s 748 mmHg 87%
04:00 +1°C° 0 mm 3 m/s 748 mmHg 85%
05:00 0°C° 0 mm 3 m/s 748 mmHg 83%
06:00 0°C° 0 mm 3 m/s 748 mmHg 82%
07:00 0°C° 0 mm 3 m/s 748 mmHg 80%
08:00 0°C° 0 mm 3 m/s 748 mmHg 79%
09:00 0°C° 0 mm 3 m/s 747 mmHg 77%
10:00 0°C° 0 mm 4 m/s 747 mmHg 76%
11:00 0°C° 0 mm 4 m/s 747 mmHg 74%
12:00 0°C° 0 mm 4 m/s 747 mmHg 74%
13:00 0°C° 0 mm 4 m/s 746 mmHg 74%
14:00 +1°C° 0 mm 4 m/s 746 mmHg 74%
15:00 0°C° 0 mm 4 m/s 746 mmHg 78%
16:00 -1°C° 0 mm 4 m/s 745 mmHg 81%
17:00 -1°C° 0 mm 4 m/s 745 mmHg 85%
18:00 -2°C° 0 mm 4 m/s 745 mmHg 86%
19:00 -2°C° 0 mm 4 m/s 745 mmHg 87%
20:00 -2°C° 0 mm 4 m/s 745 mmHg 88%
21:00 -1°C° 0 mm 3 m/s 744 mmHg 89%
22:00 -1°C° 0 mm 3 m/s 744 mmHg 91%
23:00 -1°C° 0 mm 3 m/s 744 mmHg 92%

27 Novembro, Sexta-feira

Tempo Temperatura Precipitação Vento Pressão Humidade
00:00 0°C° 0 mm 3 m/s 744 mmHg 92%
01:00 -1°C° 0 mm 4 m/s 743 mmHg 92%
02:00 0°C° 0 mm 4 m/s 743 mmHg 93%
03:00 0°C° 0.3 mm 4 m/s 743 mmHg 94%
04:00 0°C° 0.3 mm 4 m/s 743 mmHg 94%
05:00 0°C° 0.3 mm 4 m/s 743 mmHg 95%
06:00 +1°C° 0.2 mm 4 m/s 743 mmHg 95%
07:00 +2°C° 0.2 mm 3 m/s 743 mmHg 96%
08:00 +2°C° 0.2 mm 3 m/s 742 mmHg 96%
09:00 +3°C° 0 mm 3 m/s 743 mmHg 91%
10:00 +3°C° 0 mm 4 m/s 743 mmHg 86%
11:00 +3°C° 0 mm 4 m/s 743 mmHg 80%
12:00 +4°C° 0 mm 4 m/s 743 mmHg 80%
13:00 +4°C° 0 mm 4 m/s 743 mmHg 79%
14:00 +4°C° 0 mm 4 m/s 743 mmHg 79%
15:00 +3°C° 0 mm 4 m/s 743 mmHg 77%
16:00 +3°C° 0 mm 4 m/s 743 mmHg 75%
17:00 +3°C° 0 mm 4 m/s 743 mmHg 73%
18:00 +1°C° 0 mm 4 m/s 743 mmHg 77%
19:00 +1°C° 0 mm 4 m/s 743 mmHg 81%
20:00 0°C° 0 mm 4 m/s 743 mmHg 85%
21:00 0°C° 0.1 mm 4 m/s 744 mmHg 87%
22:00 -1°C° 0.1 mm 4 m/s 744 mmHg 89%
23:00 -2°C° 0.1 mm 4 m/s 744 mmHg 90%

28 Novembro, Sábado

Tempo Temperatura Precipitação Vento Pressão Humidade
00:00 -2°C° 0 mm 4 m/s 744 mmHg 89%
01:00 -3°C° 0 mm 4 m/s 745 mmHg 87%
02:00 -3°C° 0 mm 4 m/s 745 mmHg 86%
03:00 -3°C° 0 mm 4 m/s 745 mmHg 83%
04:00 -3°C° 0 mm 4 m/s 746 mmHg 81%
05:00 -2°C° 0 mm 4 m/s 746 mmHg 78%
06:00 -2°C° 0 mm 5 m/s 747 mmHg 79%
07:00 -4°C° 0 mm 5 m/s 747 mmHg 79%
08:00 -4°C° 0 mm 5 m/s 748 mmHg 80%
09:00 -2°C° 0 mm 5 m/s 748 mmHg 78%
10:00 -2°C° 0 mm 5 m/s 749 mmHg 77%
11:00 -2°C° 0 mm 5 m/s 750 mmHg 75%
12:00 -2°C° 0 mm 4 m/s 750 mmHg 75%
13:00 -1°C° 0 mm 3 m/s 750 mmHg 75%
14:00 0°C° 0 mm 3 m/s 750 mmHg 74%
15:00 -1°C° 0 mm 3 m/s 751 mmHg 78%
16:00 -2°C° 0 mm 3 m/s 751 mmHg 81%
17:00 -2°C° 0 mm 2 m/s 752 mmHg 85%
18:00 -3°C° 0 mm 2 m/s 752 mmHg 86%
19:00 -3°C° 0 mm 2 m/s 752 mmHg 87%
20:00 -3°C° 0 mm 2 m/s 753 mmHg 89%
21:00 -3°C° 0 mm 2 m/s 753 mmHg 89%
22:00 -3°C° 0 mm 2 m/s 753 mmHg 89%
23:00 -3°C° 0 mm 2 m/s 753 mmHg 89%
Mostrar mais

Necessitamos do seu Consentimento

A Meteoprog e os seus Fornecedores de Serviços podem armazenar e aceder a dados pessoais como cookies, identificadores do dispositivo ou outras tecnologias semelhantes existentes no seu dispositivo e processar estes dados para personalizar conteúdos e anúncios, assim como funcionalidades nas redes sociais e análise de tráfego.

  • Armazenar e/ou aceder a informações no seu dispositivo

    Os cookies, identificadores do dispositivo ou outras informações podem ser armazenados ou acedidos no seu dispositivo, para os fins acima indicados.

  • Anúncios e conteúdos personalizados, medição de anúncios e conteúdos, dados sobre o público-alvo e desenvolvimento de produtos

    Os anúncios e os conteúdos podem ser personalizados com base num perfil. Podem ser adicionados dados adicionais para uma maior personalização dos anúncios e dos conteúdos. A eficácia dos anúncios e dos conteúdos pode ser medida. Podem ser obtidas informações sobre o público que visualizou os anúncios e os conteúdos. Estes dados podem ser usados para desenvolver ou melhorar sistemas, softwares ou a experiência do utilizador.

Ao clicar em "Eu concordo”, permitirá o uso de cookies, identificadores do dispositivo e web beacons mencionados ou outras tecnologias semelhantes. As configurações do navegador do seu dispositivo podem ser alteradas.

Para certos fins, podem ser invocados interesses legítimos ao invés de consentimento. Pode ler mais informação sobre este assunto na nossa Política de Privacidade e Cookies.